TimeCDT,TemperatureF,Dew PointF,Humidity,Sea Level PressureIn,VisibilityMPH,Wind Direction,Wind SpeedMPH,Gust SpeedMPH,PrecipitationIn,Events,Conditions,WindDirDegrees,DateUTC
12:15 AM,44.6,42.8,93,30.17,10.0,Calm,Calm,-,N/A,,Clear,0,2011-10-03 05:15:00
12:35 AM,44.6,42.8,93,30.18,10.0,Calm,Calm,-,N/A,,Clear,0,2011-10-03 05:35:00
12:55 AM,44.6,42.8,93,30.18,10.0,Calm,Calm,-,N/A,,Clear,0,2011-10-03 05:55:00
1:15 AM,44.6,41.0,87,30.18,10.0,Calm,Calm,-,N/A,,Clear,0,2011-10-03 06:15:00
1:35 AM,42.8,41.0,93,30.18,5.0,Calm,Calm,-,N/A,,Clear,0,2011-10-03 06:35:00
1:55 AM,42.8,39.2,87,30.19,10.0,Calm,Calm,-,N/A,,Clear,0,2011-10-03 06:55:00
2:15 AM,42.8,42.8,100,30.19,10.0,Calm,Calm,-,N/A,,Clear,0,2011-10-03 07:15:00
2:35 AM,42.8,42.8,100,30.19,10.0,Calm,Calm,-,N/A,,Clear,0,2011-10-03 07:35:00
5:55 AM,39.2,37.4,93,30.21,10.0,Calm,Calm,-,N/A,,Clear,0,2011-10-03 10:55:00
6:15 AM,39.2,37.4,93,30.21,10.0,Calm,Calm,-,N/A,,Clear,0,2011-10-03 11:15:00
6:35 AM,39.2,37.4,93,30.21,10.0,Calm,Calm,-,N/A,,Clear,0,2011-10-03 11:35:00
6:55 AM,39.2,37.4,93,30.22,10.0,Calm,Calm,-,N/A,,Clear,0,2011-10-03 11:55:00
7:15 AM,39.2,37.4,93,30.22,10.0,Calm,Calm,-,N/A,,Clear,0,2011-10-03 12:15:00
7:35 AM,37.4,37.4,100,30.22,10.0,Calm,Calm,-,N/A,,Clear,0,2011-10-03 12:35:00
7:55 AM,39.2,39.2,100,30.22,10.0,Calm,Calm,-,N/A,,Clear,0,2011-10-03 12:55:00
8:15 AM,44.6,42.8,93,30.22,10.0,Calm,Calm,-,N/A,,Clear,0,2011-10-03 13:15:00
8:35 AM,51.8,44.6,76,30.22,10.0,South,4.6,-,N/A,,Clear,170,2011-10-03 13:35:00
8:55 AM,55.4,44.6,67,30.22,10.0,South,6.9,-,N/A,,Clear,180,2011-10-03 13:55:00
9:15 AM,57.2,44.6,63,30.23,10.0,South,6.9,-,N/A,,Clear,180,2011-10-03 14:15:00
9:35 AM,57.2,44.6,63,30.23,10.0,South,9.2,-,N/A,,Clear,180,2011-10-03 14:35:00
9:55 AM,60.8,44.6,55,30.23,10.0,South,3.5,-,N/A,,Clear,190,2011-10-03 14:55:00
10:15 AM,62.6,44.6,52,30.23,10.0,South,4.6,-,N/A,,Clear,180,2011-10-03 15:15:00
10:35 AM,64.4,46.4,52,30.23,10.0,SSW,6.9,-,N/A,,Clear,200,2011-10-03 15:35:00
10:55 AM,66.2,46.4,49,30.23,10.0,SSW,5.8,-,N/A,,Clear,200,2011-10-03 15:55:00
11:35 AM,68.0,46.4,46,30.23,10.0,Calm,Calm,-,N/A,,Clear,0,2011-10-03 16:35:00
11:55 AM,69.8,46.4,43,30.23,10.0,Calm,Calm,-,N/A,,Clear,0,2011-10-03 16:55:00
12:15 PM,69.8,46.4,43,30.22,10.0,Calm,Calm,-,N/A,,Clear,0,2011-10-03 17:15:00
12:35 PM,71.6,44.6,38,30.22,10.0,Calm,Calm,-,N/A,,Clear,0,2011-10-03 17:35:00
1:15 PM,73.4,46.4,38,30.21,10.0,South,6.9,-,N/A,,Clear,180,2011-10-03 18:15:00
1:35 PM,73.4,46.4,38,30.20,10.0,SSW,4.6,-,N/A,,Clear,200,2011-10-03 18:35:00
1:55 PM,73.4,44.6,36,30.19,10.0,Calm,Calm,-,N/A,,Clear,0,2011-10-03 18:55:00
2:15 PM,75.2,44.6,34,30.19,10.0,Calm,Calm,-,N/A,,Clear,0,2011-10-03 19:15:00
2:35 PM,75.2,44.6,34,30.18,10.0,South,4.6,-,N/A,,Clear,180,2011-10-03 19:35:00
3:15 PM,75.2,42.8,31,30.17,10.0,SSW,6.9,-,N/A,,Clear,210,2011-10-03 20:15:00
3:35 PM,75.2,42.8,31,30.16,10.0,South,4.6,-,N/A,,Clear,190,2011-10-03 20:35:00
3:55 PM,75.2,44.6,34,30.16,10.0,Calm,Calm,-,N/A,,Clear,0,2011-10-03 20:55:00
4:15 PM,75.2,44.6,34,30.15,10.0,SSE,5.8,-,N/A,,Clear,160,2011-10-03 21:15:00
4:35 PM,75.2,44.6,34,30.16,10.0,SSE,3.5,-,N/A,,Clear,150,2011-10-03 21:35:00
5:15 PM,75.2,44.6,34,30.16,10.0,East,3.5,-,N/A,,Clear,80,2011-10-03 22:15:00
5:35 PM,69.8,48.2,46,30.17,10.0,NNW,6.9,-,N/A,,Clear,340,2011-10-03 22:35:00
5:55 PM,66.2,46.4,49,30.17,10.0,North,3.5,-,N/A,,Clear,360,2011-10-03 22:55:00
6:15 PM,66.2,44.6,46,30.18,10.0,Calm,Calm,-,N/A,,Clear,0,2011-10-03 23:15:00
6:35 PM,64.4,44.6,49,30.18,10.0,Calm,Calm,-,N/A,,Clear,0,2011-10-03 23:35:00
6:55 PM,60.8,48.2,63,30.17,10.0,Calm,Calm,-,N/A,,Clear,0,2011-10-03 23:55:00
7:35 PM,55.4,48.2,77,30.17,10.0,Calm,Calm,-,N/A,,Clear,0,2011-10-04 00:35:00
7:55 PM,55.4,48.2,77,30.17,10.0,Calm,Calm,-,N/A,,Clear,0,2011-10-04 00:55:00
8:35 PM,53.6,48.2,82,30.17,10.0,Calm,Calm,-,N/A,,Clear,0,2011-10-04 01:35:00
8:55 PM,51.8,48.2,88,30.17,10.0,Calm,Calm,-,N/A,,Clear,0,2011-10-04 01:55:00
9:15 PM,50.0,48.2,94,30.17,10.0,Calm,Calm,-,N/A,,Clear,0,2011-10-04 02:15:00
9:35 PM,48.2,46.4,93,30.17,10.0,Calm,Calm,-,N/A,,Clear,0,2011-10-04 02:35:00
9:55 PM,55.4,46.4,72,30.17,10.0,South,6.9,-,N/A,,Clear,170,2011-10-04 02:55:00
10:15 PM,62.6,46.4,55,30.17,10.0,SSW,8.1,-,N/A,,Clear,200,2011-10-04 03:15:00
10:35 PM,62.6,46.4,55,30.17,10.0,South,8.1,-,N/A,,Clear,190,2011-10-04 03:35:00
10:55 PM,57.2,44.6,63,30.18,10.0,Calm,Calm,-,N/A,,Clear,0,2011-10-04 03:55:00
11:15 PM,51.8,46.4,82,30.18,10.0,NW,3.5,-,N/A,,Clear,320,2011-10-04 04:15:00
11:35 PM,50.0,46.4,87,30.19,10.0,Calm,Calm,-,N/A,,Clear,0,2011-10-04 04:35:00
11:55 PM,48.2,46.4,93,30.19,10.0,NNW,3.5,-,N/A,,Clear,330,2011-10-04 04:55:00